Location: *
(44.3683°N, 6.6958°E)
Time: 23:33:56
(UTC+00:00)

Cosmos 724 - Pass Details

Date: 14 October 2019
Orbit: 859 x 935 km, 65.6° (Epoch: 20 November)

Event Time Altitude Azimuth Distance (km) Brightness Sun altitude
Rises 17:30:27 0° 212° (SSW) 3,571 8.0 -7.7°
Reaches altitude 10° 17:32:59 10° 213° (SSW) 2,625 7.3 -8.2°
Maximum altitude 17:39:07 87° 303° (WNW) 926 4.4 -9.3°
Drops below altitude 10° 17:45:12 10° 33° (NNE) 2,596 6.4 -10.4°
Sets 17:47:42 0° 34° (NE) 3,530 7.1 -10.8°
